Weather History for Jackson Hawkins Field, MS

Change the Weather History Date:

Thursday, October 27, 2011

  Actual Average (KJAN) Record (KJAN)
Temperature  
Mean Temperature 68 °F 62 °F  
Max Temperature 80 °F 74 °F 90 °F (1919)
Min Temperature 55 °F 50 °F 29 °F (1898)
Degree Days  
Heating Degree Days 0 5  
Month to date heating degree days 77  
Since 1 July heating degree days 84  
Cooling Degree Days 2 2  
Month to date cooling degree days 98  
Year to date cooling degree days 2224  
Growing Degree Days 18 (Base 50)    
Moisture  
Dew Point 56 °F    
Average Humidity 79    
Maximum Humidity 100    
Minimum Humidity 50    
Precipitation  
Precipitation 0.00 in 0.13 in 1.74 in (1985)
Month to date precipitation 3.42  
Year to date precipitation 43.73  
Sea Level Pressure  
Sea Level Pressure 29.91 in    
Wind  
Wind Speed 5 mph (NNE)    
Max Wind Speed 10 mph    
Max Gust Speed 18 mph    
Visibility 9 miles    
Events      
T = Trace of Precipitation, MM = Missing Value Source: NWS Daily Summary

Daily Weather History Graph

Daily Weather History Graph

Search for Another Location

Airport:

Trip Planner

Search our weather history database for the weather conditions in past years. The results will help you decide how hot, cold, wet, or windy it might be!

Date:

Astronomy

Oct. 27, 2011 Rise Set
Actual Time 7:13 AM CDT 6:15 PM CDT
Civil Twilight 6:48 AM CDT 6:40 PM CDT
Nautical Twilight 6:19 AM CDT 7:09 PM CDT
Astronomical Twilight 5:51 AM CDT 7:37 PM CDT
Moon 8:09 AM CDT (10/27) 6:52 PM CDT (10/27)
Length of Visible Light 11h 52m
Length of Day
11h 01m
New Moon, 1% of the Moon is Illuminated
Oct 27
New Moon
Nov 2
First Quarter
Nov 10
Full
Nov 18
Last Quarter
Nov 25
New

Hourly Weather History & Observations

Time (CDT) Temp. Heat Index Dew Point Humidity Pressure Visibility Wind Dir Wind Speed Gust Speed Precip Events Conditions
12:53 AM 60.1 °F - 53.1 °F 78% 29.92 in 10.0 mi South 6.9 mph - N/A   Clear
1:53 AM 59.0 °F - 54.0 °F 83% 29.92 in 10.0 mi South 6.9 mph - N/A   Clear
3:53 AM 57.0 °F - 54.0 °F 89% 29.91 in 10.0 mi SSE 3.5 mph - N/A   Clear
4:53 AM 57.0 °F - 54.0 °F 89% 29.90 in 9.0 mi SE 3.5 mph - N/A   Clear
5:53 AM 57.0 °F - 55.0 °F 93% 29.91 in 7.0 mi Calm Calm - N/A   Clear
6:53 AM 55.9 °F - 55.0 °F 97% 29.91 in 5.0 mi SSE 4.6 mph - N/A   Clear
7:22 AM 55.4 °F - 55.4 °F 100% 29.93 in 2.5 mi Calm Calm - N/A   Clear
7:53 AM 57.9 °F - 55.9 °F 93% 29.92 in 2.5 mi SSE 3.5 mph - N/A   Scattered Clouds
8:25 AM 60.8 °F - 57.2 °F 88% 29.94 in 3.0 mi South 3.5 mph - N/A   Mostly Cloudy
8:53 AM 61.0 °F - 59.0 °F 93% 29.92 in 3.0 mi Calm Calm - N/A   Scattered Clouds
9:53 AM 69.1 °F - 61.0 °F 75% 29.93 in 10.0 mi SW 4.6 mph - N/A   Overcast
10:53 AM 75.9 °F - 62.1 °F 62% 29.92 in 10.0 mi SW 10.4 mph - N/A   Partly Cloudy
11:53 AM 77.0 °F - 60.1 °F 56% 29.91 in 10.0 mi SW 8.1 mph - N/A   Overcast
12:53 PM 79.0 °F - 59.0 °F 50% 29.88 in 10.0 mi WSW 8.1 mph - N/A   Mostly Cloudy
1:53 PM 77.0 °F - 61.0 °F 58% 29.87 in 10.0 mi North 5.8 mph 18.4 mph N/A   Mostly Cloudy
2:53 PM 80.1 °F 80.9 °F 60.1 °F 50% 29.85 in 10.0 mi Variable 3.5 mph - N/A   Clear
3:53 PM 73.0 °F - 60.1 °F 64% 29.87 in 10.0 mi NNW 9.2 mph 18.4 mph N/A   Overcast
4:53 PM 66.9 °F - 55.9 °F 68% 29.89 in 10.0 mi NNW 8.1 mph - N/A   Overcast
5:53 PM 64.9 °F - 55.9 °F 73% 29.89 in 10.0 mi NNE 3.5 mph - N/A   Scattered Clouds
6:53 PM 62.1 °F - 55.0 °F 78% 29.91 in 10.0 mi NNW 4.6 mph - N/A   Partly Cloudy
7:51 PM 60.8 °F - 55.4 °F 82% 29.95 in 10.0 mi North 9.2 mph - N/A   Mostly Cloudy
7:53 PM 60.1 °F - 55.0 °F 83% 29.94 in 10.0 mi Variable 6.9 mph - N/A   Mostly Cloudy
8:53 PM 60.1 °F - 55.0 °F 83% 29.93 in 10.0 mi NNE 4.6 mph - N/A   Overcast
9:53 PM 59.0 °F - 54.0 °F 83% 29.94 in 10.0 mi North 4.6 mph - N/A   Overcast
10:53 PM 57.9 °F - 54.0 °F 87% 29.94 in 10.0 mi NNE 6.9 mph - N/A   Overcast
11:02 PM 57.2 °F - 53.6 °F 88% 29.95 in 10.0 mi NE 8.1 mph - N/A   Overcast
11:53 PM 57.9 °F - 54.0 °F 87% 29.93 in 10.0 mi NE 5.8 mph - N/A   Overcast